| time (UTC) | temp C | wind direction | speed KPH | gust KPH | rain 1hr cm | rain 24hr cm | rain mn cm | humidity % | barometer mb |
| 20260503053013 | 11 | 207 | 8.0 | 11.3 | 0.00 | 0.00 | 0.00 | 51 | 927.7 |
| 20260503051515 | 12 | 213 | 9.7 | 14.5 | 0.00 | 0.00 | 0.00 | 48 | 927.8 |
| 20260503050055 | 11 | 215 | 16.1 | 24.1 | 0.00 | 0.00 | 0.00 | 50 | 927.8 |
| 20260503044556 | 11 | 84 | 8.0 | 16.1 | 0.00 | 0.00 | 0.00 | 51 | 927.8 |
| 20260503043040 | 12 | 107 | 6.4 | 8.0 | 0.00 | 0.00 | 0.00 | 50 | 927.8 |
| 20260503041536 | 11 | 61 | 3.2 | 8.0 | 0.00 | 0.00 | 0.00 | 50 | 927.8 |
| 20260503040026 | 11 | 86 | 4.8 | 9.7 | 0.00 | 0.00 | 0.00 | 51 | 927.8 |
| 20260503034518 | 11 | 69 | 6.4 | 12.9 | 0.00 | 0.00 | 0.00 | 51 | 927.7 |
| 20260503033003 | 11 | 68 | 4.8 | 12.9 | 0.00 | 0.00 | 0.00 | 51 | 927.6 |
| 20260503031504 | 11 | 78 | 4.8 | 8.0 | 0.00 | 0.00 | 0.00 | 50 | 927.6 |
| 20260503030005 | 12 | 59 | 6.4 | 9.7 | 0.00 | 0.00 | 0.00 | 47 | 927.3 |
| 20260503024503 | 13 | 42 | 6.4 | 9.7 | 0.00 | 0.00 | 0.00 | 44 | 927.3 |
| 20260503023003 | 14 | 90 | 12.9 | 14.5 | 0.00 | 0.00 | 0.00 | 45 | 927.3 |
| 20260503021502 | 15 | 78 | 4.8 | 9.7 | 0.00 | 0.00 | 0.00 | 43 | 927.3 |
| 20260503020001 | 16 | 76 | 6.4 | 12.9 | 0.00 | 0.00 | 0.00 | 41 | 927.2 |
| 20260503014603 | 17 | 76 | 6.4 | 16.1 | 0.00 | 0.00 | 0.00 | 39 | 927.2 |
| 20260503014502 | 17 | 81 | 4.8 | 16.1 | 0.00 | 0.00 | 0.00 | 38 | 927.2 |
| 20260503013103 | 17 | 84 | 4.8 | 14.5 | 0.00 | 0.00 | 0.00 | 37 | 927.2 |
| 20260503011608 | 17 | 79 | 3.2 | 8.0 | 0.00 | 0.00 | 0.00 | 36 | 927.2 |
| 20260503010121 | 18 | 5 | 1.6 | 9.7 | 0.00 | 0.00 | 0.00 | 34 | 927.3 |
| 20260503004557 | 18 | 342 | 4.8 | 9.7 | 0.00 | 0.00 | 0.00 | 35 | 927.3 |
| 20260503003100 | 19 | 342 | 4.8 | 11.3 | 0.00 | 0.00 | 0.00 | 34 | 927.3 |
| 20260503001600 | 18 | 338 | 6.4 | 12.9 | 0.00 | 0.00 | 0.00 | 34 | 927.5 |
| 20260503000035 | 19 | 350 | 14.5 | 19.3 | 0.00 | 0.00 | 0.00 | 33 | 927.4 |
| 20260502234538 | 19 | 35 | 6.4 | 16.1 | 0.00 | 0.00 | 0.00 | 33 | 927.6 |
| 20260502233018 | 20 | 229 | 8.0 | 17.7 | 0.00 | 0.00 | 0.00 | 33 | 927.6 |
| 20260502231516 | 19 | 5 | 9.7 | 24.1 | 0.00 | 0.00 | 0.00 | 33 | 927.9 |
| 20260502230056 | 19 | 31 | 3.2 | 19.3 | 0.00 | 0.00 | 0.00 | 34 | 928.1 |
| 20260502224601 | 19 | 216 | 4.8 | 19.3 | 0.00 | 0.00 | 0.00 | 35 | 928.1 |
| 20260502223037 | 19 | 355 | 9.7 | 16.1 | 0.00 | 0.00 | 0.00 | 34 | 928.2 |
| 20260502221537 | 18 | 28 | 1.6 | 16.1 | 0.00 | 0.00 | 0.00 | 36 | 928.3 |
| 20260502220025 | 18 | 286 | 6.4 | 12.9 | 0.00 | 0.00 | 0.00 | 35 | 928.3 |
| 20260502214535 | 19 | 309 | 11.3 | 22.5 | 0.00 | 0.00 | 0.00 | 35 | 928.6 |
| 20260502213028 | 19 | 24 | 9.7 | 20.9 | 0.00 | 0.00 | 0.00 | 35 | 928.6 |
| 20260502211527 | 19 | 335 | 11.3 | 22.5 | 0.00 | 0.00 | 0.00 | 35 | 928.8 |
| 20260502210028 | 18 | 336 | 12.9 | 20.9 | 0.00 | 0.00 | 0.00 | 37 | 929.0 |
| 20260502204520 | 18 | 5 | 14.5 | 25.7 | 0.00 | 0.00 | 0.00 | 37 | 929.0 |
| 20260502203020 | 18 | 207 | 6.4 | 20.9 | 0.00 | 0.00 | 0.00 | 35 | 929.0 |
| 20260502201522 | 18 | 258 | 8.0 | 24.1 | 0.00 | 0.00 | 0.00 | 35 | 929.2 |
| 20260502200047 | 18 | 355 | 9.7 | 27.4 | 0.00 | 0.00 | 0.00 | 36 | 929.3 |
| 20260502194550 | 18 | 24 | 17.7 | 27.4 | 0.00 | 0.00 | 0.00 | 35 | 929.4 |
| 20260502193029 | 18 | 10 | 14.5 | 22.5 | 0.00 | 0.00 | 0.00 | 37 | 929.5 |
| 20260502191526 | 17 | 24 | 17.7 | 29.0 | 0.00 | 0.00 | 0.00 | 39 | 929.6 |
| 20260502190019 | 17 | 16 | 11.3 | 20.9 | 0.00 | 0.00 | 0.00 | 38 | 929.6 |
| 20260502184510 | 17 | 333 | 11.3 | 17.7 | 0.00 | 0.00 | 0.00 | 38 | 929.7 |
| 20260502183053 | 18 | 54 | 12.9 | 22.5 | 0.00 | 0.00 | 0.00 | 38 | 929.8 |
| 20260502181550 | 18 | 338 | 14.5 | 29.0 | 0.00 | 0.00 | 0.00 | 38 | 929.9 |
| 20260502163034 | 16 | 61 | 11.3 | 27.4 | 0.00 | 0.00 | 0.00 | 43 | 930.1 |
| 20260502161530 | 16 | 49 | 12.9 | 24.1 | 0.00 | 0.00 | 0.00 | 43 | 930.2 |
| 20260502151547 | 14 | 54 | 17.7 | 22.5 | 0.00 | 0.00 | 0.00 | 45 | 930.1 |
| 20260502123048 | 7 | 26 | 19.3 | 27.4 | 0.00 | 0.00 | 0.00 | 60 | 929.3 |
| 20260502121532 | 7 | 26 | 19.3 | 29.0 | 0.00 | 0.00 | 0.00 | 60 | 929.1 |
| 20260502114515 | 7 | 38 | 20.9 | 30.6 | 0.00 | 0.00 | 0.00 | 58 | 928.8 |
| 20260502113010 | 8 | 17 | 16.1 | 29.0 | 0.00 | 0.00 | 0.00 | 56 | 928.7 |
| 20260502111507 | 8 | 36 | 22.5 | 27.4 | 0.00 | 0.00 | 0.00 | 56 | 928.5 |
| 20260502110011 | 8 | 44 | 17.7 | 25.7 | 0.00 | 0.00 | 0.00 | 54 | 928.3 |
| 20260502104501 | 8 | 53 | 17.7 | 24.1 | 0.00 | 0.00 | 0.00 | 52 | 928.1 |
| 20260502103059 | 9 | 44 | 16.1 | 20.9 | 0.00 | 0.00 | 0.00 | 50 | 928.1 |
| 20260502101615 | 9 | 34 | 19.3 | 29.0 | 0.00 | 0.00 | 0.00 | 48 | 927.9 |
| 20260502100110 | 8 | 19 | 17.7 | 24.1 | 0.00 | 0.00 | 0.00 | 49 | 928.0 |
| 20260502091513 | 10 | 360 | 20.9 | 32.2 | 0.00 | 0.00 | 0.00 | 44 | 927.9 |
| 20260502070109 | 9 | 350 | 9.7 | 12.9 | 0.00 | 0.00 | 0.00 | 40 | 927.2 |
| 20260502064610 | 9 | 355 | 9.7 | 14.5 | 0.00 | 0.00 | 0.00 | 40 | 927.3 |
| 20260502063052 | 9 | 355 | 11.3 | 16.1 | 0.00 | 0.00 | 0.00 | 39 | 927.3 |
| 20260502060030 | 10 | 26 | 6.4 | 14.5 | 0.00 | 0.00 | 0.00 | 37 | 927.3 |
| 20260502054507 | 10 | 360 | 9.7 | 12.9 | 0.00 | 0.00 | 0.00 | 35 | 927.3 |